Torna al catalogo

STARLINK-33597

AttivoComunicazioniVLEO
NORAD 62763·PAYLOAD·🇺🇸 United States

Lanciato Jan 21, 2025 da Vandenberg Space Force Base

Loading…

Prossimi Passaggi (prossime 24 ore)

TLE

AggiornatoSource: CelesTrak SupGP

Epoca: Sep 14, 2026, 22:42 UTC

1 62763C 25015F   26257.94631944 -.00005138  00000+0 -16522-3 0  2573
2 62763  53.1571 162.2329 0001254  97.5150 252.4896 15.31703410    14

Traccia STARLINK-33597 in tempo reale con AllMySat

Download on the App Store